Simultaneous Nadir Overpasses (SNOs) Predictions

Prediction of SNOs between METOP-B and TERRA Satellite Orbit:

Table of predicted SNOs for the next 14.0 days since TLE Epoch: 1/23/2021
Index Date (METOP-B) Time (METOP-B) Lat,Lon (METOP-B) SZA (METOP-B ) Date (TERRA) Time (TERRA) Lat,Lon (TERRA) SZA (TERRA ) Distance(km) Time Diff (sec)
1 01/24/2021 08:06:23 -81.30, -75.04 77.32 01/24/2021 08:06:40 -81.30, -74.85 77.29 3.24 17
2 01/24/2021 08:57:02 81.31, 92.94 102.74 01/24/2021 08:56:06 81.31, 92.92 102.72 0.55 56
3 01/27/2021 03:40:45 -81.30, -8.65 78.05 01/27/2021 03:40:54 -81.29, -8.54 78.03 1.85 9
4 01/27/2021 04:31:24 81.31, 159.28 102.02 01/27/2021 04:30:20 81.30, 159.19 101.98 1.54 64
5 01/29/2021 22:24:45 81.09,-117.34 100.32 01/29/2021 22:25:58 80.85,-116.34 100.24 32.30 73
6 01/29/2021 23:15:05 -81.30, 58.13 78.76 01/29/2021 23:15:06 -81.31, 58.11 78.76 0.62 1
7 01/30/2021 00:05:44 81.31,-133.99 101.29 01/30/2021 00:04:32 81.31,-134.18 101.24 3.22 72
8 02/01/2021 17:58:47 81.29, -43.32 100.40 02/01/2021 17:59:53 81.30, -43.26 100.43 1.01 66
9 02/01/2021 18:49:27 -81.30, 124.52 79.56 02/01/2021 18:49:20 -81.30, 124.36 79.59 2.92 7
10 02/04/2021 13:33:08 81.30, 23.42 99.60 02/04/2021 13:34:06 81.30, 23.30 99.61 2.13 58



Historial Predications of SNOs between METOP-B and TERRA
